This is the latest recevied weather packets stored in our database for station/object N4ZIQ. If no packets are shown the sender has not sent any weather packets the latest 10 day(s).
| Time | Temp. | Humidity | Pressure | Rain* | Wind** | Luminosity | Snow |
|---|---|---|---|---|---|---|---|
| 1778242246 | 22.78° C | 92% | 1015.9 hPa | 0 mm | - | 137 W/m² | - |
| 1778241946 | 22.78° C | 93% | 1015.8 hPa | 0 mm | - | 156 W/m² | - |
| 1778241658 | 22.22° C | 94% | 1015.7 hPa | 0 mm | - | 137 W/m² | - |
| 1778241346 | 21.67° C | 95% | 1015.7 hPa | 0 mm | - | 121 W/m² | - |
| 1778241044 | 21.11° C | 95% | 1015.7 hPa | 0 mm | - | 88 W/m² | - |
| 1778240750 | 20.56° C | 95% | 1015.5 hPa | 0 mm | - | 109 W/m² | - |
| 1778240445 | 20° C | 95% | 1015.4 hPa | 0 mm | - | 98 W/m² | - |
| 1778240145 | 18.89° C | 95% | 1015.5 hPa | 0 mm | - | 90 W/m² | - |
| 1778239857 | 18.89° C | 95% | 1015.5 hPa | 0 mm | - | 79 W/m² | - |
| 1778239545 | 18.33° C | 95% | 1015.3 hPa | 0 mm | - | 69 W/m² | - |
| 1778239244 | 17.78° C | 95% | 1015.3 hPa | 0 mm | - | 58 W/m² | - |
| 1778238959 | 17.22° C | 95% | 1015.2 hPa | 0 mm | - | 35 W/m² | - |
| 1778238645 | 17.22° C | 95% | 1015.1 hPa | 0 mm | - | 32 W/m² | - |
| 1778238344 | 17.22° C | 95% | 1015 hPa | 0 mm | - | 25 W/m² | - |
| 1778238063 | 16.67° C | 94% | 1014.8 hPa | 0 mm | - | 19 W/m² | - |
| 1778237744 | 16.67° C | 94% | 1014.6 hPa | 0 mm | - | 16 W/m² | - |
| 1778237445 | 16.11° C | 94% | 1014.6 hPa | 0 mm | - | 12 W/m² | - |
| 1778237152 | 16.67° C | 94% | 1014.6 hPa | 0 mm | - | 7 W/m² | - |
| 1778236848 | 16.67° C | 94% | 1014.6 hPa | 0 mm | - | 0 W/m² | - |
| 1778236548 | 17.22° C | 94% | 1014.7 hPa | 0 mm | - | 0 W/m² | - |
| 1778236281 | 16.67° C | 94% | 1014.5 hPa | 0 mm | - | 0 W/m² | - |
| 1778235949 | 16.11° C | 93% | 1014.5 hPa | 0 mm | - | 0 W/m² | - |
| 1778235645 | 16.67° C | 94% | 1014.4 hPa | 0 mm | - | 0 W/m² | - |
| 1778235374 | 16.67° C | 94% | 1014.3 hPa | 0 mm | - | 0 W/m² | - |
| 1778235048 | 16.67° C | 94% | 1014.2 hPa | 0 mm | - | 0 W/m² | - |
* Rain latest hour (hover to see other rain measurements)
** Current wind speed in m/s (hover to see current wind gust speed)